LiveATC.Net - Listen to live air traffic control over the Internet!


ICAO: KAMW  IATA: AMW   Airport: Ames Municipal Airport
City: Ames   State/Province: Iowa
Country: United States   Continent: North America
KAMW METAR Weather: KAMW 201053Z AUTO 34012KT 10SM CLR M22/M26 A3066 RMK AO2 SLP407 T12171256
KAMW Flight Activity (FlightAware)
KAMW Airport Info   (iFlightPlanner)
KAMW VFR Sectional Chart   (iFlightPlanner) 
KAMW IFR Low Altitude Chart   (iFlightPlanner) 
KAMW IFR High Altitude Chart   (iFlightPlanner) 

KAMW CTAF
Feed Status: UP   Listeners: 0
Listen in your browser - HTML5 player (in browser, HTML5)
Click here to listen with your own player (launches your MP3 player)
Archive Access: KAMW CTAF
FacilityFrequency
Ames CTAF122.700

NOTICE

Unauthorized use prohibited. See LiveATC.net Terms of Service


Airport/ARTCC Code
Frequency Search
(e.g., 124.400, 128.75)
Site-wide search
 


Browse Feeds
Top 50 Feeds
HF Oceanic Feeds
Coverage Map
Bad Weather Areas

LiveATC FAQ
Offer LiveATC feed
Contact LiveATC.net
Press Inquiries

LiveATC on iPhone
LiveATC on Android

LiveATC Mobile
(Mobile browser)

ATC Audio Archives
Interesting Recordings

LiveATC Forums


Home Page
About LiveATC.net
Make a Donation
Terms of Use
Privacy Policy

Canadian Air Freqs

AIRMETs/SIGMETs

FAA Airport Status
NAS Status
Arrival Demand


Server Software By:
Icecast.org
Liquidsoap